Arcata Airport

Airport
ICAO code: 
KACV
Summary
ICAO Region: 
NAM
Territory: 
Location: 
Arcata, California, California
Serving: 
Humboldt County
Coordinates: 
Aerial View: 
40° 58' 15.218" N, 124° 6' 23.493" W
Airport WX: 
Fog
Metar
Observation
KACV 020953Z AUTO 00000KT 1/4SM R32/1800V2200FT FG VV002 10/09 A3016 RMK AO2 SLP219 T01000094
Station
Arcata / Eureka, Arcata Airport
Date/Time
2021-12-02 09:53:00
Wind direction
Wind speed
00 kts
Lowest cloud amount
n/a
Temperature
10°C
Dew point
9.4°C
Humidity
96%
Weather condition
fog

Arcata Airport, also known as Arcata/Eureka Airport, is an airport located 24 km north of Eureka in the unincorporated town of McKinleyville, California. This regional airport serves Humboldt County, including the two primary regional cities that compose its name: Arcata and Eureka.

Climatology

Dry-summer subtropical ”Mediterranean" climate (Köppen climate classification Csb) - characterized by warm, dry summers and mild winters.

Runways

Designator Length Width Surface Rops
1/19 1371 46 ASP Yes/Yes
14/32 1829 46 ASP Yes/Yes
Airport map: 
Aerial View: 

SKYbrary Partners:

Safety knowledge contributed by: